GOES 3 [-]

Last updated on Jan. 23, 2021, 7:09 a.m. UTC

1 10953U 78062A   21022.65695103 -.00000241  00000-0  00000-0 0  9991
2 10953  11.2379 316.8052 0003036  30.0246 170.9924  0.99365872108948
UTC
Height (km)
Latitude
Longitude
Inclination
Orbital Period
UTC large
Height (km)
Speed (km/s)
/
Latitude / Longitude
Inclination (degrees)
Orbital Period (minutes)
Azimuth
Elevation
Range (km)
Doppler Factor
iOS Compass Heading
iOS Angle

Next 30 passes for location: Hong Kong

Rise time Rise Azimuth (degrees) Set time Set Azimuth (degrees) Duration Max altitude (degrees)

No matching passes for this satellites